Lapse_Rate
5.5 5.5 5.7 5.8 6.0 6.1 6.0 6.0 5.8 6.0 5.7 5.5 5.3 4.9 4.8 4.3 4.5 4.9 5.6 6.0 6.4 6.5 6.3 6.3 6.6 6.9 7.0 7.0 7.2 6.9 6.9 6.8 6.3 6.7 7.0 6.8 6.3 6.1 5.9 6.0 5.8 5.6 5.1 4.1
5.4 5.4 5.7 5.6 5.9 6.0 6.0 5.9 5.7 5.5 5.3 5.2 4.9 4.8 4.7 4.5 4.1 4.7 5.4 5.6 5.9 6.2 6.3 6.5 6.3 6.5 6.9 6.7 7.2 6.8 6.8 6.8 6.7 6.6 7.1 6.8 6.7 6.6 6.3 6.3 5.6 5.1 5.4 5.1
5.4 5.5 5.7 5.5 5.8 5.9 5.9 5.6 5.3 5.0 4.9 5.3 4.8 4.7 4.6 4.4 4.3 4.9 5.2 5.8 6.1 6.1 6.0 6.4 6.2 6.2 6.4 6.5 7.0 6.9 6.8 6.8 6.9 6.9 6.7 6.5 6.2 6.4 6.5 6.3 5.7 5.7 5.2 5.1
5.4 5.5 5.7 5.6 5.7 6.0 5.8 5.7 5.0 5.1 4.7 5.0 4.8 4.5 4.2 3.7 3.7 4.5 5.0 5.5 5.9 5.9 5.6 6.0 5.9 6.1 6.3 6.7 6.9 6.9 7.0 6.6 6.6 6.7 6.6 6.5 6.4 6.2 6.7 6.8 6.5 5.6 5.7 5.7
5.4 5.5 5.6 5.5 5.7 6.0 5.8 5.6 5.3 5.0 4.7 4.8 4.7 4.2 3.6 3.2 3.5 4.3 4.6 4.7 5.6 5.9 5.7 5.4 5.4 5.6 6.0 6.0 6.5 6.7 6.7 6.4 6.4 6.4 6.8 6.8 6.4 6.2 6.8 6.7 6.7 6.3 6.2 5.7
5.3 5.5 5.7 5.6 5.7 5.9 5.7 5.6 5.5 5.0 4.7 4.7 4.4 4.0 3.3 3.6 3.1 4.2 4.6 4.5 4.7 5.6 5.8 6.1 6.4 6.7 6.5 6.3 6.1 6.2 6.4 6.7 6.6 6.4 6.6 6.9 6.3 6.9 6.7 6.8 6.9 6.6 5.9 5.6
5.3 5.5 5.6 5.7 6.1 6.0 5.8 5.6 5.5 5.0 4.8 4.6 4.5 4.0 3.3 2.7 3.5 3.9 4.7 4.9 5.0 5.4 6.0 6.5 7.0 7.2 7.0 6.9 6.9 6.6 6.4 6.5 6.7 6.5 6.6 5.1 6.9 6.8 6.9 7.0 6.7 6.4 6.2 6.0
5.3 5.4 5.6 5.7 5.9 5.9 5.7 5.5 5.2 4.9 4.8 4.4 4.2 3.8 3.4 3.1 3.5 4.6 5.1 5.6 5.5 5.6 6.3 6.2 6.4 6.7 7.0 7.1 7.0 7.0 7.2 6.9 6.9 6.8 7.0 7.3 7.3 7.1 7.2 7.0 6.8 6.4 6.3 6.2
5.4 5.3 5.5 5.5 5.6 5.8 5.4 5.4 5.2 4.7 4.6 4.0 4.0 4.1 3.6 3.4 3.2 4.3 4.9 5.4 5.8 6.0 6.1 6.4 6.3 6.5 6.6 7.2 7.2 7.2 6.9 7.2 7.3 7.3 7.2 6.4 7.3 7.4 7.3 7.3 6.8 6.3 6.3 6.4
5.4 5.4 5.6 5.6 5.7 6.0 5.6 5.5 5.4 5.1 4.8 4.4 4.2 3.8 3.6 3.4 3.2 4.0 4.8 5.2 5.6 5.9 5.8 6.2 6.4 6.7 6.9 6.9 7.1 7.0 7.4 7.5 7.5 7.6 7.6 7.5 7.2 7.5 7.3 7.5 6.7 6.7 6.3 6.2
5.2 5.3 5.5 5.6 5.6 5.7 5.7 5.5 5.5 5.4 5.0 4.4 4.3 3.9 3.7 3.4 3.4 4.1 4.9 5.3 5.3 5.6 5.7 6.1 6.4 6.5 6.7 6.9 7.1 7.3 7.3 7.3 7.7 7.5 7.7 7.2 7.4 7.5 7.4 6.5 6.2 6.4 6.3 6.2
5.1 5.3 5.5 5.6 5.7 5.7 5.7 5.6 5.6 5.5 5.1 4.6 4.4 4.1 3.7 3.5 3.8 4.2 5.1 5.4 5.6 5.8 5.9 6.2 6.5 6.7 6.9 7.0 7.0 7.3 7.5 7.5 7.4 7.1 7.3 7.2 7.0 6.8 6.6 6.6 6.8 6.5 6.5 6.4
5.2 5.3 5.5 5.7 5.8 6.0 6.0 5.9 5.7 5.6 5.3 4.8 4.6 4.1 4.1 4.1 4.2 4.7 5.2 5.6 5.7 6.0 6.3 6.2 6.4 6.5 6.7 6.8 7.1 7.4 7.4 7.4 7.2 7.1 7.1 7.0 6.8 6.6 6.4 6.4 6.6 6.5 6.4 6.5
5.3 5.4 5.5 5.8 5.9 6.2 6.3 6.2 6.1 5.6 5.5 5.3 5.0 4.6 4.6 4.2 4.3 4.8 5.4 5.7 5.9 6.0 6.4 6.6 6.6 6.5 6.7 6.8 6.8 7.1 7.2 7.1 7.1 7.2 7.0 6.8 6.8 6.6 6.8 6.5 6.4 6.4 6.3 6.3
5.2 5.4 5.4 5.8 6.0 6.1 6.3 6.3 6.1 5.6 5.4 5.4 5.0 4.6 4.5 4.6 4.7 5.1 5.5 5.9 6.0 6.1 6.2 6.6 6.5 6.6 6.6 6.8 6.9 7.1 7.1 7.0 6.8 6.6 6.6 6.7 6.6 6.7 6.7 6.5 6.5 6.4 6.6 6.6
5.1 5.4 5.6 6.0 6.2 6.2 6.3 6.1 6.0 5.7 5.5 5.4 5.2 4.8 4.8 4.7 4.8 5.4 5.6 6.1 6.4 6.5 6.4 6.3 6.5 6.5 6.5 6.6 6.8 6.8 6.7 6.7 6.5 6.5 6.4 6.2 6.2 6.2 6.3 6.2 6.1 5.9 5.9 6.2
5.0 5.4 5.7 6.0 6.4 6.4 6.3 6.1 5.9 5.7 5.3 5.0 5.0 5.1 5.1 5.0 4.8 5.4 6.0 6.5 6.7 6.7 6.3 6.1 6.4 6.6 6.7 6.7 6.7 6.6 6.6 6.5 6.3 6.1 6.0 5.8 5.7 5.9 5.9 5.8 5.6 5.6 5.4 5.4
5.1 5.3 5.4 6.1 6.3 6.5 6.3 6.1 5.8 5.5 5.1 4.9 4.8 5.0 4.9 4.9 4.8 5.2 5.6 6.1 6.6 6.5 6.1 6.1 6.2 6.5 6.5 6.6 6.6 6.7 6.6 6.5 6.2 6.0 5.9 5.9 5.8 5.6 5.5 5.5 5.4 5.3 5.2 5.0
5.1 5.2 5.5 6.1 6.2 6.1 6.0 5.8 5.4 5.2 4.9 4.9 4.8 4.7 4.7 4.7 4.8 5.1 5.6 6.1 6.3 6.4 6.0 5.9 6.1 6.6 6.7 7.0 6.9 6.8 6.6 6.5 6.4 6.3 6.1 6.0 5.9 5.9 5.8 5.7 5.5 5.5 5.5 5.4
5.0 5.0 5.6 5.8 5.8 6.1 5.3 5.3 5.2 4.9 4.8 4.6 4.6 4.5 4.6 4.6 4.9 5.2 5.7 5.7 6.0 5.8 6.1 5.9 6.2 6.7 6.9 6.8 7.0 6.9 6.8 6.8 6.7 6.5 6.3 6.1 6.0 6.1 6.2 6.2 6.1 5.9 5.8 5.7
4.8 4.8 5.7 5.9 6.1 5.4 5.2 5.0 5.2 5.0 4.8 4.5 4.5 4.5 4.5 4.6 4.9 5.3 5.7 5.9 6.1 5.9 6.0 6.2 6.2 6.5 6.7 7.0 7.1 7.0 7.0 6.9 6.9 6.8 6.9 6.9 6.7 6.6 6.4 6.2 6.1 6.0 5.9 5.8
4.8 5.0 5.7 6.1 5.6 5.1 5.2 5.1 5.2 5.3 4.8 4.6 4.6 4.4 4.4 4.5 4.9 5.3 5.4 5.6 5.9 6.1 6.1 6.3 6.4 6.9 6.8 6.8 6.8 6.6 6.5 6.5 6.5 6.5 6.5 6.5 6.6 6.5 6.4 6.4 6.2 6.1 5.9 5.9
4.8 5.5 6.0 6.0 5.5 5.4 5.6 5.7 5.7 5.3 4.8 4.6 4.3 4.2 4.2 4.7 4.8 5.1 5.5 5.8 6.1 6.1 6.3 6.4 6.8 6.9 6.9 6.8 6.8 6.7 6.8 6.9 7.0 6.8 6.4 6.4 6.5 6.4 6.3 6.2 6.2 6.2 6.2 6.1
5.3 5.6 5.8 5.7 5.7 5.6 6.0 5.9 5.5 5.1 4.6 4.4 4.3 4.4 4.5 4.8 5.1 5.5 5.9 6.1 6.1 6.3 6.4 6.9 7.0 6.7 6.7 6.7 6.7 6.7 6.6 6.6 6.6 6.6 6.4 6.2 6.2 6.2 6.2 6.1 6.1 6.0 5.9 5.9
5.2 5.7 6.0 5.8 6.0 5.8 5.8 5.6 5.3 4.8 4.6 4.5 4.4 4.5 4.7 4.9 5.3 5.3 6.0 6.4 6.6 6.8 7.1 6.9 6.8 6.7 6.6 6.5 6.4 6.3 6.3 6.2 6.1 6.1 5.9 5.9 5.9 5.9 5.7 5.7 5.7 5.6 5.6 5.6
5.3 5.9 6.1 6.2 6.0 5.9 5.7 5.6 5.3 4.7 4.6 4.4 4.4 4.3 4.7 4.9 5.4 5.5 6.3 6.5 6.9 7.1 6.9 6.8 6.7 6.6 6.5 6.4 6.2 6.0 5.9 5.8 5.7 5.6 5.7 5.7 5.6 5.5 5.5 5.4 5.3 5.3 5.2 5.2
5.7 6.0 6.1 6.0 5.8 5.6 5.6 5.4 4.9 4.7 4.5 4.3 4.2 4.4 5.1 5.6 5.5 5.8 6.2 6.7 6.9 6.8 6.7 6.6 6.4 6.2 6.0 5.8 5.7 5.6 5.5 5.4 5.3 5.6 5.7 5.6 5.4 5.3 5.3 5.2 5.2 5.0 5.0 4.9
Wind_Speed
17 18 17 18 19 13 5 2 3 4 3 3 1 1 2 6 6 3 3 4 3 5 2 5 3 4 4 5 4 7 5 3 3 7 6 4 1 2 1 1 4 2 4 8
17 17 18 18 17 14 2 2 2 3 2 2 3 3 4 3 5 6 4 4 4 2 3 6 4 4 4 8 4 4 4 1 5 7 2 3 2 3 4 1 2 7 5 6
15 17 19 21 19 16 3 2 3 4 4 2 3 6 4 9 4 3 4 6 5 5 7 4 7 11 5 8 9 15 2 3 8 10 4 3 9 14 11 5 4 6 11 21
15 16 18 20 22 13 3 3 1 1 4 3 6 2 4 5 6 3 5 5 6 11 5 10 5 8 19 11 11 3 2 5 6 11 11 9 13 14 16 12 11 9 5 13
13 13 16 18 22 9 3 2 2 2 3 2 3 2 3 4 5 2 6 5 12 7 6 10 19 17 7 7 4 4 3 5 7 13 7 11 13 12 15 14 13 9 8 5
13 12 13 14 17 9 3 2 2 2 2 3 3 2 2 6 5 6 5 7 7 11 10 8 17 17 20 17 11 9 4 2 2 4 3 5 6 6 5 1 9 5 4 7
12 14 14 15 15 7 3 1 2 2 3 1 3 3 4 6 7 6 12 9 3 6 9 13 11 11 15 14 13 9 9 10 3 4 2 2 2 3 5 11 10 13 12 13
9 11 12 10 11 5 3 2 2 2 3 3 6 1 4 7 6 6 6 6 5 6 6 4 7 5 7 4 0 3 5 3 3 2 3 4 2 4 5 4 6 11 12 15
6 8 7 8 6 3 2 1 2 1 1 4 1 2 3 2 3 5 5 4 3 4 1 3 2 2 4 7 10 3 2 4 2 2 2 3 3 10 13 9 3 13 14 14
8 10 11 10 8 7 3 2 4 2 2 2 4 1 4 2 2 3 4 6 6 4 3 3 1 3 2 4 5 7 6 3 2 5 4 1 12 18 12 2 5 17 13 13
8 8 8 9 8 8 2 3 8 3 2 4 6 3 4 3 3 2 4 3 2 1 4 1 2 1 3 2 4 3 2 5 2 3 3 2 20 5 7 7 9 12 13 13
7 8 8 9 9 6 3 2 1 3 2 4 3 5 5 5 4 4 2 2 2 2 2 1 2 3 2 3 3 3 3 2 3 4 3 5 6 9 4 7 10 13 14 15
9 9 8 11 12 10 4 1 2 1 1 3 2 2 3 3 3 1 2 1 2 1 0 2 2 3 1 2 3 1 4 7 1 2 2 7 5 4 10 11 11 14 13 16
10 11 11 12 11 11 6 2 2 1 0 1 4 2 2 3 4 2 1 1 0 1 1 3 3 2 2 2 3 4 3 8 7 3 6 7 5 11 12 15 14 14 14 14
10 10 12 12 11 9 10 6 3 1 1 2 4 3 2 2 3 3 3 3 2 0 1 1 2 0 3 3 3 3 4 4 3 3 6 4 9 12 11 13 12 14 14 15
11 11 10 8 10 15 3 1 1 5 1 1 3 2 3 3 4 1 2 3 2 2 3 3 2 2 2 2 2 1 1 3 2 4 10 9 10 10 11 11 14 14 12 14
11 8 6 4 7 7 3 2 1 5 1 1 3 4 2 1 1 2 2 2 1 2 1 0 2 3 3 2 2 7 7 6 3 4 7 3 4 7 13 12 12 13 10 10
7 2 15 18 19 10 3 4 7 3 2 2 0 4 3 4 3 3 1 2 3 2 1 2 2 2 2 3 2 5 7 8 2 9 4 4 8 8 10 10 11 12 12 13
3 11 10 5 4 2 0 6 5 8 2 3 2 1 3 3 1 2 2 2 2 2 1 2 2 2 4 3 3 4 6 5 8 10 6 6 7 9 10 11 13 12 13 13
8 4 3 1 0 4 3 5 3 4 4 3 1 1 2 2 2 3 2 2 1 2 1 2 3 2 3 2 3 3 6 6 7 5 7 9 8 9 10 9 9 9 10 11
2 2 1 1 4 2 3 2 3 2 3 2 0 2 1 2 1 2 1 1 1 2 2 2 1 2 3 5 4 3 5 5 5 3 4 5 5 7 7 9 9 9 10 11
3 4 3 2 3 3 4 1 3 2 2 2 1 2 2 3 1 2 2 1 2 3 1 3 1 2 3 4 3 4 4 5 5 4 5 6 6 6 6 6 8 9 8 9
2 2 3 3 2 3 5 4 3 0 1 2 3 3 0 2 2 1 2 1 4 0 3 1 3 1 2 4 3 4 4 4 4 4 5 6 6 5 5 6 6 7 7 7
2 3 2 3 2 4 3 3 3 1 2 1 0 2 0 1 2 1 1 3 2 1 0 3 2 2 3 3 3 3 4 5 4 4 4 5 5 5 5 5 6 5 6 7
2 3 3 4 2 3 1 1 3 2 1 1 1 1 1 2 1 1 2 4 3 4 3 2 2 2 2 3 4 4 4 4 4 3 3 4 5 5 5 5 5 5 5 5
2 2 2 1 2 0 1 1 2 0 1 1 2 2 3 2 1 1 4 3 4 2 2 1 1 0 2 2 4 4 3 3 3 3 2 2 4 4 5 5 4 5 5 5
2 0 2 2 3 2 2 2 2 1 2 2 2 2 6 1 2 2 3 4 2 1 1 2 1 1 3 4 3 4 4 4 4 3 3 2 2 3 3 5 5 5 4 4
Wind_Direction
9 10 6 9 8 358 33 61 339 300 352 45 62 4 285 313 300 341 332 313 288 226 286 268 276 263 271 11 312 331 354 343 275 245 316 247 149 150 146 163 296 269 294 274
13 10 9 5 9 10 338 5 297 325 45 73 327 313 298 301 337 336 302 292 268 315 271 290 245 300 319 323 282 7 347 331 300 328 10 36 98 200 228 205 218 233 243 269
12 10 9 8 3 353 76 54 350 336 39 21 60 339 293 334 312 262 327 267 322 344 331 274 308 294 298 345 319 303 262 238 252 274 261 281 280 279 279 204 263 275 248 286
7 356 357 2 4 355 81 37 306 69 324 343 350 302 313 323 350 333 309 331 5 346 298 303 247 312 304 278 282 302 192 262 267 266 266 274 273 272 277 260 249 255 286 288
10 1 3 4 2 11 74 75 43 15 284 280 334 317 291 18 311 286 310 320 321 319 291 285 298 299 288 267 282 220 222 271 282 273 241 255 268 268 258 273 275 256 267 273
16 10 11 5 4 31 84 354 46 98 306 330 45 270 19 300 348 282 245 295 311 303 272 262 276 269 269 262 275 267 253 231 256 274 301 311 286 266 242 301 42 334 9 2
8 9 8 11 11 47 122 194 106 71 279 62 217 313 306 279 297 270 290 297 203 257 319 299 276 269 267 262 262 250 265 270 273 278 17 300 283 8 52 95 52 21 356 350
360 1 353 353 7 59 88 165 104 107 280 185 295 266 219 278 287 280 258 280 230 329 313 336 342 338 359 342 32 343 274 273 276 271 192 289 95 23 8 351 76 19 351 343
352 336 335 350 1 18 77 224 150 89 136 261 227 253 212 280 285 324 268 303 321 9 304 40 27 296 263 331 345 338 16 292 233 10 250 243 29 328 328 301 155 13 358 343
332 330 336 353 350 338 142 242 176 123 283 250 144 180 301 176 245 257 306 328 344 34 15 29 266 291 221 329 321 318 326 325 234 283 287 80 343 317 307 252 328 339 344 333
322 326 334 334 325 331 24 253 202 142 231 263 192 206 214 278 249 265 295 329 322 334 27 251 312 301 272 333 260 255 262 319 334 339 320 296 355 19 48 318 313 326 331 327
317 314 316 315 303 289 346 258 86 187 219 265 201 221 251 254 279 260 235 243 272 325 329 337 285 270 330 190 287 325 334 355 303 11 24 35 45 80 19 331 323 330 326 324
300 310 319 316 324 309 212 214 167 75 291 288 342 357 348 42 31 273 276 261 227 281 240 303 258 254 179 267 261 340 46 15 25 295 63 345 83 55 14 351 331 329 325 318
305 305 314 314 309 299 187 170 158 182 155 272 278 310 14 323 348 8 319 342 234 269 221 243 228 215 197 358 62 68 333 334 330 268 14 343 219 11 359 342 338 334 329 323
314 311 311 306 308 313 109 86 45 340 264 253 282 278 24 325 25 39 38 74 84 238 316 228 256 280 4 89 86 43 355 355 343 303 12 281 291 335 341 338 334 331 325 331
317 317 312 308 321 144 122 101 20 353 66 272 287 270 342 349 2 25 129 178 187 147 151 226 307 32 5 82 75 149 314 305 278 303 314 289 287 308 336 331 328 325 337 334
323 315 310 286 100 76 84 156 30 360 86 256 302 328 307 236 331 3 354 360 262 131 225 334 79 18 50 66 73 345 340 323 265 301 318 347 347 323 324 336 335 335 330 339
330 341 100 88 92 99 40 351 1 353 100 61 83 273 3 3 336 337 342 360 18 337 237 45 77 11 61 69 315 330 333 332 333 337 320 263 299 326 346 349 348 354 355 350
355 124 101 62 43 81 169 346 57 44 106 162 95 100 277 358 296 247 340 72 355 281 74 71 79 352 55 2 313 339 340 339 313 320 320 340 348 350 354 358 1 1 354 352
116 64 59 53 229 282 27 13 28 15 341 37 114 171 298 57 358 312 0 17 317 341 346 91 67 80 119 349 306 300 334 334 340 342 346 346 349 353 353 356 355 355 352 350
47 73 142 163 12 64 34 36 88 325 14 359 355 163 254 344 62 268 58 258 304 15 255 114 93 92 295 327 337 330 340 340 340 322 319 328 326 337 344 350 355 357 357 357
172 135 78 52 43 46 87 284 328 97 224 333 121 257 206 291 32 91 325 234 37 250 333 73 76 246 254 310 303 317 334 345 347 344 340 340 348 349 344 348 353 352 350 354
59 62 54 62 317 46 151 213 286 286 221 334 6 317 242 327 67 44 49 25 229 100 40 130 215 235 322 326 322 333 344 344 337 345 349 344 344 351 356 347 347 343 350 353
118 134 246 166 241 243 182 173 160 120 102 87 212 264 67 295 24 145 78 250 45 48 213 226 233 260 297 297 296 318 326 339 333 330 336 344 346 336 339 355 343 347 356 346
170 116 231 205 155 59 129 154 100 45 71 80 57 346 83 322 13 75 2 347 274 212 223 209 212 249 285 315 321 314 306 314 310 300 325 337 343 341 335 347 342 344 350 351
92 74 117 129 96 185 46 60 120 15 93 88 58 109 59 281 143 45 214 126 232 217 216 208 178 272 318 306 311 299 308 307 305 315 290 328 349 342 319 318 344 346 345 348
87 140 20 65 57 108 135 136 183 124 94 193 114 115 219 64 42 272 202 213 213 183 329 346 159 180 289 301 308 313 313 315 326 320 314 285 319 327 340 349 339 342 335 328